Location: Lixville
(37.5770°N, 89.9118°W)
Time: 09:54:58
(UTC+00:00)

Vanguard 2 Rocket - All Passes

Search period start: 07 November 2024 00:00
Search period end: 17 November 2024 00:00
Orbit: 553 x 3297 km, 32.9° (Epoch: 06 November)

Date Brightness Start Highest point End Pass type
(mag) Time Alt. Az. Time Alt. Az. Time Alt. Az.
07 Nov - 11:09:46 10° SSE 11:17:43 15° SE 11:26:45 10° E visible
07 Nov - 13:16:11 10° SSW 13:31:58 44° SE 13:49:58 10° E daylight
07 Nov - 15:29:38 10° WSW 15:49:00 70° SSE 16:06:54 10° E daylight
07 Nov - 17:46:44 10° W 18:07:00 75° S 18:21:37 10° ESE daylight
07 Nov - 20:05:44 10° W 20:23:04 52° SSW 20:34:00 10° SE daylight
07 Nov - 22:27:24 10° W 22:35:43 18° SW 22:41:59 10° SSW daylight
08 Nov - 12:13:29 10° SSW 12:26:50 33° SE 12:43:09 10° E daylight
08 Nov - 14:24:54 10° SW 14:42:45 62° SSE 15:01:40 10° E daylight
08 Nov - 16:40:36 10° W 17:00:48 76° S 17:17:24 10° E daylight
08 Nov - 18:58:49 10° W 19:18:06 64° SSW 19:30:59 10° ESE daylight
08 Nov - 21:18:54 10° W 21:32:15 31° SW 21:41:15 10° SSE daylight
09 Nov - 11:12:03 10° S 11:22:18 22° SE 11:34:56 10° E visible
09 Nov - 13:20:57 10° SW 13:36:53 52° SSE 13:55:49 10° E daylight
09 Nov - 15:35:03 10° WSW 15:54:22 74° S 16:12:40 10° E daylight
09 Nov - 17:52:15 10° W 18:12:27 72° SSW 18:27:21 10° ESE daylight
09 Nov - 20:11:21 10° W 20:28:09 44° SW 20:39:14 10° SSE daylight
09 Nov - 22:35:47 10° WSW 22:40:26 12° SW 22:44:26 10° SW daylight
10 Nov - 10:13:58 10° SE 10:18:20 12° SE 10:23:10 10° ESE visible
10 Nov - 12:17:50 10° SSW 12:31:33 41° SE 12:49:15 10° E daylight
10 Nov - 14:30:12 10° WSW 14:47:57 69° SSE 15:07:21 10° E daylight
10 Nov - 16:46:09 10° W 17:06:15 76° S 17:23:09 10° ESE daylight
10 Nov - 19:04:20 10° W 19:23:19 56° SSW 19:36:26 10° SE daylight
10 Nov - 21:25:16 10° W 21:37:00 24° SW 21:45:33 10° S daylight
11 Nov - 11:15:41 10° S 11:26:54 29° SE 11:41:44 10° E visible
11 Nov - 13:26:02 10° SW 13:41:53 60° SSE 14:01:28 10° E daylight
11 Nov - 15:40:35 10° WSW 15:59:45 76° S 16:18:21 10° E daylight
11 Nov - 17:57:47 10° W 18:17:46 66° SSW 18:32:56 10° ESE daylight
11 Nov - 20:17:08 10° W 20:33:00 36° SW 20:44:06 10° SSE daylight
12 Nov - 10:15:03 10° SSE 10:22:53 18° SE 10:32:40 10° E visible
12 Nov - 12:22:37 10° SW 12:36:23 49° SSE 12:55:00 10° E daylight
12 Nov - 14:35:39 10° WSW 14:53:15 73° S 15:12:58 10° E daylight
12 Nov - 16:51:43 10° W 17:11:38 73° S 17:28:47 10° ESE daylight
12 Nov - 19:09:55 10° W 19:28:19 48° SSW 19:41:36 10° SE daylight
12 Nov - 21:32:32 10° W 21:41:36 17° SW 21:48:52 10° SSW daylight
13 Nov - 11:20:01 10° SSW 11:31:35 37° SE 11:47:51 10° E visible
13 Nov - 13:31:22 10° WSW 13:47:02 67° SSE 14:07:01 10° E daylight
13 Nov - 15:46:11 10° W 16:05:08 76° S 16:23:58 10° ESE daylight
13 Nov - 18:03:19 10° W 18:22:55 60° SSW 18:38:17 10° SE daylight
13 Nov - 20:23:16 10° W 20:37:40 28° SW 20:48:26 10° S daylight
14 Nov - 10:18:26 10° S 10:27:27 25° SE 10:39:48 10° E visible
14 Nov - 12:27:45 10° SW 12:41:21 57° SSE 13:00:33 10° E daylight
14 Nov - 14:41:15 10° WSW 14:58:35 76° S 15:18:32 10° E daylight
14 Nov - 16:57:17 10° W 17:16:53 68° SSW 17:34:14 10° ESE daylight
14 Nov - 19:15:38 10° W 19:33:07 40° SW 19:46:23 10° SSE daylight
14 Nov - 21:42:37 10° WSW 21:46:07 11° SW 21:49:21 10° SW daylight
15 Nov - 09:19:05 10° SSE 09:23:54 13° SE 09:29:36 10° ESE visible
15 Nov - 11:24:50 10° SSW 11:36:22 45° SE 11:53:34 10° E visible
15 Nov - 13:36:53 10° WSW 13:52:17 72° SSE 14:12:31 10° E daylight
15 Nov - 15:51:48 10° W 16:10:29 74° S 16:29:28 10° ESE daylight
15 Nov - 18:08:54 10° W 18:27:51 52° SSW 18:43:20 10° SE daylight
15 Nov - 20:30:03 10° W 20:42:12 21° SW 20:52:00 10° S daylight
16 Nov - 10:22:41 10° SSW 10:32:06 32° SE 10:46:02 10° E visible
16 Nov - 12:33:07 10° WSW 12:46:28 64° SSE 13:06:00 10° E daylight
16 Nov - 14:46:53 10° W 15:03:57 76° S 15:24:01 10° E daylight
16 Nov - 17:02:52 10° W 17:22:00 62° SSW 17:39:28 10° SE daylight
16 Nov - 19:21:38 10° W 19:37:45 32° SW 19:50:40 10° SSE daylight
